This is the latest recevied weather packets stored in our database for station/object KE2HEH. If no packets are shown the sender has not sent any weather packets the latest 10 day(s).
| Time | Temp. | Humidity | Pressure | Rain* | Wind** | Luminosity | Snow |
|---|---|---|---|---|---|---|---|
| 1777643923 | 11.67° C | 49% | 1013.8 hPa | 0 mm | - | 641 W/m² | - |
| 1777643621 | 12.22° C | 48% | 1013.9 hPa | 0 mm | - | 626 W/m² | - |
| 1777643318 | 11.67° C | 48% | 1014 hPa | 0 mm | - | 604 W/m² | - |
| 1777643014 | 11.67° C | 50% | 1014 hPa | 0 mm | - | 570 W/m² | - |
| 1777642711 | 11.67° C | 50% | 1014.1 hPa | 0 mm | - | 576 W/m² | - |
| 1777642408 | 11.67° C | 51% | 1014 hPa | 0 mm | - | 568 W/m² | - |
| 1777642104 | 11.67° C | 51% | 1014.1 hPa | 0 mm | - | 553 W/m² | - |
| 1777641801 | 11.67° C | 52% | 1014.1 hPa | 0 mm | - | 538 W/m² | - |
| 1777641496 | 11.11° C | 53% | 1014 hPa | 0 mm | - | 530 W/m² | - |
| 1777641191 | 11.11° C | 54% | 1014 hPa | 0 mm | - | 517 W/m² | - |
| 1777640888 | 11.11° C | 54% | 1014.1 hPa | 0 mm | - | 499 W/m² | - |
| 1777640585 | 11.11° C | 54% | 1014 hPa | 0 mm | - | 494 W/m² | - |
| 1777640281 | 11.11° C | 55% | 1014.3 hPa | 0 mm | - | 489 W/m² | - |
| 1777639977 | 10.56° C | 55% | 1014 hPa | 0 mm | - | 465 W/m² | - |
| 1777639675 | 11.11° C | 57% | 1014.1 hPa | 0 mm | - | 438 W/m² | - |
| 1777639374 | 10.56° C | 57% | 1014.3 hPa | 0 mm | - | 423 W/m² | - |
| 1777639073 | 10.56° C | 57% | 1014.2 hPa | 0 mm | - | 414 W/m² | - |
| 1777638771 | 10.56° C | 58% | 1013.9 hPa | 0 mm | - | 399 W/m² | - |
| 1777638466 | 10.56° C | 58% | 1013.9 hPa | 0 mm | - | 386 W/m² | - |
| 1777638163 | 10.56° C | 59% | 1014 hPa | 0 mm | - | 371 W/m² | - |
| 1777637858 | 10.56° C | 59% | 1014.1 hPa | 0 mm | - | 341 W/m² | - |
| 1777637555 | 10.56° C | 59% | 1013.9 hPa | 0 mm | - | 342 W/m² | - |
| 1777637253 | 10° C | 59% | 1013.9 hPa | 0 mm | - | 329 W/m² | - |
| 1777636950 | 10° C | 60% | 1013.8 hPa | 0 mm | - | 299 W/m² | - |
| 1777636645 | 10° C | 60% | 1014 hPa | 0 mm | - | 295 W/m² | - |
* Rain latest hour (hover to see other rain measurements)
** Current wind speed in m/s (hover to see current wind gust speed)